Regional Weather Roundup
Issued by NWS

Home | Current Version | Previous Version | Graphics & Text | Print | Product List | Glossary On
Versions: 1 2 3 4 5 6 7 8 9 10 11 12 13 14 15 16 17 18 19 20 21 22 23 24 25 26 27 28 29 30 31 32 33 34 35 36 37 38 39 40 41 42 43 44 45 46 47 48 49 50
000
ASUS43 KDMX 050807
RWRIA

WEATHER ROUNDUP FOR IOWA
NATIONAL WEATHER SERVICE DES MOINES IA
300 AM CDT WED AUG 05 2015

NOTE: "FAIR" INDICATES FEW OR NO CLOUDS BELOW 12,000 FEET WITH NO
SIGNIFICANT WEATHER AND/OR OBSTRUCTIONS TO VISIBILITY.

* - THESE STATIONS ARE NOT NWS STATIONS...THUS NOT UNDER NWS
QUALITY CONTROL.  THEY ALSO DO NOT REPORT WEATHER SUCH
AS PRECIPITATION OR FOG.

IAZ001>003-012>014-020>022-031>034-043>046-050900-
   NORTHWEST IOWA

CITY           SKY/WX    TMP DP  RH WIND       PRES   REMARKS
CARROLL *      CLOUDY    66  64  94 CALM      30.02R
CHEROKEE *     PTCLDY    63  61  94 E5        30.02F
DENISON *      CLOUDY    66  64  94 E8        29.99S
LE MARS *      CLEAR     66  63  88 NE8       30.00F
ORANGE CITY *  CLEAR     63  57  82 E6        30.02F
SHELDON *      CLEAR     61  57  88 E6        30.02F
SIOUX CITY     LGT RAIN  67  62  84 E10       29.98F
SPENCER        PTCLDY    58  54  86 E6        30.04F
STORM LAKE *   CLEAR     63  61  94 E3        30.04S
$$

IAZ055>058-069>071-079>083-090>094-050900-
   SOUTHWEST IOWA

CITY           SKY/WX    TMP DP  RH WIND       PRES   REMARKS
ATLANTIC *     PTCLDY    68  66  94 CALM      30.00S
AUDUBON *      PTCLDY    66  63  88 CALM      30.02S
CLARINDA *     CLEAR     68  68 100 CALM      30.02R
COUNCIL BLFS * PTCLDY    66  64  94 E9        30.00S
CRESTON *      MOCLDY    66  66 100 SE6       30.03R
HARLAN  *      CLEAR     66  66 100 CALM      30.04R
LAMONI         PTCLDY    69  66  90 CALM      30.01R
RED OAK *      CLOUDY    66  66 100 NE3       30.01R
SHENANDOAH *   CLOUDY    70  68  94 CALM      30.00S
$$

IAZ047>049-059>061-072>074-084-050900-
   CENTRAL IOWA

CITY           SKY/WX    TMP DP  RH WIND       PRES   REMARKS
AMES           MOCLDY    66  63  90 CALM      30.02R
ANKENY *       CLOUDY    66  66 100 CALM      30.01S
CHARITON *     PTCLDY    66  64  94 CALM      30.01S
DES MOINES     MOCLDY    70  62  76 SE7       30.00S
GRINNELL*      MOCLDY    64  63  94 E3        30.03S
KNOXVILLE *    CLOUDY    66  64  94 SE5       30.00R
MARSHALLTOWN   PTCLDY    63  58  83 E5        30.02S
PELLA *        CLOUDY    68  66  94 CALM      30.03R
PERRY *        CLOUDY    68  66  94 NE5       30.02R
$$

IAZ004>006-015-016-023>025-035-036-050900-
   NORTH CENTRAL IOWA

CITY           SKY/WX    TMP DP  RH WIND       PRES   REMARKS
ALGONA *       CLOUDY    63  57  82 E3        30.05S
CLARION *      CLEAR     59  57  94 E6        30.04S
ESTHERVILLE    MOCLDY    55  52  89 CALM      30.05F
FORT DODGE *   PTCLDY    61  55  82 E6        30.04S
MASON CITY     MOCLDY    54  52  93 CALM      30.07S
FOREST CITY *  CLEAR     54  54 100 CALM      30.06R FOG
IOWA FALLS *     N/A     61  57  88 NE3       30.04F
$$

IAZ007>011-017>019-026>030-037>042-050>054-066-050900-
   NORTHEAST IOWA

CITY           SKY/WX    TMP DP  RH WIND       PRES   REMARKS
CEDAR RAPIDS   PTCLDY    62  60  93 E7        30.02F
CHARLES CITY * CLEAR     57  55  94 CALM      30.06S
CLINTON *      CLEAR     59  57  94 CALM      30.07R
DECORAH *      CLEAR     57  57 100 CALM      30.05S
DUBUQUE        CLEAR     55  52  89 CALM      30.05S
MONTICELLO *   CLEAR     55  55 100 CALM      30.05R
OELWEIN *      CLEAR     57  55  94 NE6       30.05F
WATERLOO       MOCLDY    57  55  93 NE5       30.03S
$$

IAZ064-065-067-068-078-050900-
   EAST CENTRAL IOWA

CITY           SKY/WX    TMP DP  RH WIND       PRES   REMARKS
DAVENPORT      CLEAR     61  59  93 NE3       30.04S
IOWA CITY      PTCLDY    65  63  93 CALM      30.03F
MT. PLEASANT * PTCLDY    66  63  88 NE3       30.01F
MUSCATINE *    PTCLDY    63  61  94 CALM      30.02F
QUAD CITIES    PTCLDY    63  60  90 CALM      30.03S
$$

IAZ062-063-075>077-085>089-095>099-050900-
   SOUTHEAST IOWA

CITY           SKY/WX    TMP DP  RH WIND       PRES   REMARKS
BURLINGTON     PTCLDY    67  65  93 E5        30.01S
FAIRFIELD *    CLOUDY    66  63  88 E3        30.01S
FORT MADISON * CLEAR     66  64  94 E5        30.02F
KEOKUK *       CLEAR     66  64  94 E5        30.01R
OSKALOOSA *    MOCLDY    66  63  88 CALM      30.02R
CENTERVILLE *  PTCLDY    66  64  94 E5        30.02S
OTTUMWA        PTCLDY    67  64  90 E3        30.00S
WASHINGTON *   PTCLDY    63  63 100 NE6       30.03S
$$

ABBREVIATIONS USED IN REMARKS
   TC - TEMPERATURES IN CELSIUS
  WCI - WIND CHILL INDEX
   HX - HEAT INDEX
  VSB - VISIBILITY
$$



USA.gov is the U.S. government's official web portal to all federal, state and local government web resources and services.